Location: Hanover
(52.3667°N, 9.7167°E)
Time: 03:12:23
(UTC+02:00)

ARIANE 6 FM1 Upper Stage - Pass Details

Date: 28 September 2024
Orbit: 564 x 594 km, 62.0° (Epoch: 06 October)

Event Time Altitude Azimuth Distance (km) Brightness Sun altitude
Rises 22:32:05 0° 287° (WNW) 2,809 7.2 -30.2°
Reaches altitude 10° 22:34:42 10° 302° (WNW) 1,916 6.2 -30.5°
Maximum altitude 22:38:12 23° 356° (N) 1,271 4.8 -30.8°
Enters shadow 22:38:12 23° 356° (N) 1,271 4.8 -30.8°
